Tracking 29892 objects as of 21-Nov-2024
HD Live streaming from Space Station
objects crossing your sky now

STARLINK-5033

Track STARLINK-5033 now!
10-day predictions
STARLINK-5033 is classified as:


NORAD ID: 55412
Int'l Code: 2023-014X
Perigee: 577.2 km
Apogee: 581.2 km
Inclination: 70.0 °
Period: 96.1 minutes
Semi major axis: 6950 km
RCS: Unknown
Launch date: January 31, 2023
Source: United States (US)
Launch site: AIR FORCE WESTERN TEST RANGE (AFWTR)
Your satellite tracking list
Your tracking list is empty




NASA's NSSDC Master Catalog

Two Line Element Set (TLE):
1 55412U 23014X   24325.61784786  .00000813  00000-0  75928-4 0  9997
2 55412  69.9992 199.6429 0002820 270.6742  89.4094 14.98329510 99614
Source of the keplerian elements: AFSPC